Temperature
1 1 1 1 1 1 1 1 1 1 1 1 1 1 1 1 1 1 1 1 1 1 1 1 2 2 2 2 2 2 2 2 2 2 2 3 3 3 3 3 3 3 3
0 0 0 0 0 0 1 1 1 1 1 1 1 1 1 1 1 1 1 1 1 1 1 1 1 1 1 1 1 1 1 1 1 1 2 2 2 2 2 2 2 2 2
-0 -0 -0 -0 -0 -0 0 0 0 0 0 0 0 1 1 0 0 0 0 0 0 0 0 0 0 0 0 0 1 1 1 1 1 1 1 1 1 1 1 1 1 2 2
-1 -1 -1 -1 -1 -1 -1 -0 -0 -0 -0 -0 0 0 0 0 -0 -0 -0 -0 -0 -0 -0 -0 -0 -0 -0 -0 0 0 0 0 0 -0 -0 -0 -0 0 0 0 1 1 1
-2 -1 -1 -1 -1 -1 -1 -1 -1 -1 -1 -1 -0 -1 -1 -1 -1 -1 -1 -1 -1 -1 -1 -1 -1 -1 -1 -1 -0 -0 -0 -1 -1 -1 -1 -1 -1 -1 -1 -1 -0 -0 -0
-2 -2 -2 -2 -2 -2 -1 -1 -1 -1 -1 -1 -1 -1 -1 -1 -1 -1 -1 -1 -1 -1 -1 -1 -1 -1 -1 -1 -1 -1 -1 -1 -1 -1 -1 -1 -1 -1 -1 -1 -1 -1 -2
-3 -3 -2 -2 -2 -2 -2 -2 -2 -1 -1 -1 -1 -1 -1 -1 -2 -2 -2 -2 -2 -2 -2 -2 -2 -2 -1 -1 -1 -1 -1 -1 -2 -2 -2 -2 -2 -2 -2 -2 -2 -2 -2
-3 -3 -3 -3 -2 -2 -2 -2 -2 -2 -2 -2 -2 -2 -2 -2 -2 -2 -2 -2 -2 -2 -2 -2 -2 -2 -2 -2 -2 -2 -2 -2 -2 -2 -2 -2 -2 -2 -2 -2 -2 -2 -2
-3 -3 -3 -3 -3 -3 -3 -3 -2 -2 -2 -2 -2 -2 -2 -2 -2 -2 -2 -3 -3 -3 -3 -2 -2 -2 -2 -2 -2 -3 -3 -3 -2 -2 -2 -2 -2 -2 -3 -3 -3 -3 -3
-4 -3 -3 -3 -3 -3 -3 -3 -3 -3 -3 -3 -3 -3 -3 -3 -3 -3 -3 -3 -3 -3 -3 -3 -3 -3 -3 -3 -3 -3 -3 -3 -3 -3 -3 -3 -3 -3 -3 -3 -3 -3 -4
-4 -4 -4 -4 -4 -3 -3 -3 -3 -3 -3 -3 -3 -3 -3 -3 -3 -3 -3 -3 -3 -3 -3 -3 -3 -3 -3 -3 -3 -3 -3 -3 -3 -3 -3 -3 -3 -3 -3 -3 -3 -4 -4
-4 -4 -4 -4 -4 -4 -4 -4 -4 -4 -4 -4 -4 -4 -4 -4 -3 -3 -3 -4 -4 -4 -4 -4 -4 -4 -4 -3 -3 -4 -4 -4 -4 -3 -3 -4 -4 -4 -4 -4 -4 -4 -4
-5 -5 -5 -5 -4 -5 -4 -4 -4 -4 -4 -4 -4 -4 -4 -4 -4 -4 -4 -4 -4 -4 -4 -4 -4 -4 -4 -4 -4 -4 -4 -4 -4 -4 -4 -4 -4 -4 -4 -4 -4 -4 -4
-5 -5 -5 -5 -5 -5 -5 -5 -5 -5 -5 -5 -5 -5 -5 -4 -4 -4 -4 -4 -4 -4 -4 -4 -4 -4 -4 -4 -4 -4 -4 -4 -4 -4 -4 -4 -4 -4 -4 -4 -4 -4 -5
-5 -5 -5 -5 -5 -5 -5 -6 -5 -5 -5 -5 -5 -5 -5 -5 -5 -5 -4 -4 -4 -4 -4 -5 -5 -5 -5 -5 -5 -5 -5 -5 -5 -5 -5 -5 -5 -5 -5 -5 -5 -5 -5
-5 -6 -6 -6 -6 -6 -6 -6 -6 -6 -6 -6 -5 -5 -5 -5 -5 -5 -5 -5 -5 -5 -5 -5 -5 -5 -5 -5 -5 -5 -5 -5 -5 -5 -5 -5 -5 -5 -5 -5 -5 -5 -6
-6 -6 -6 -6 -6 -6 -6 -6 -6 -6 -6 -6 -5 -6 -6 -5 -5 -5 -5 -5 -5 -5 -5 -5 -5 -5 -5 -5 -6 -6 -6 -6 -6 -6 -6 -6 -6 -6 -6 -6 -6 -6 -6
-6 -6 -6 -6 -6 -6 -6 -6 -6 -6 -6 -6 -6 -6 -6 -6 -5 -5 -5 -5 -5 -5 -5 -5 -5 -6 -6 -6 -6 -6 -6 -6 -6 -6 -6 -6 -6 -6 -6 -6 -6 -6 -6
-6 -6 -6 -6 -6 -6 -6 -6 -6 -6 -6 -6 -6 -6 -6 -6 -6 -6 -5 -5 -5 -5 -6 -6 -6 -6 -6 -6 -6 -6 -6 -6 -6 -6 -6 -6 -6 -6 -6 -6 -6 -6 -6
-6 -6 -6 -6 -6 -6 -6 -6 -7 -7 -6 -6 -6 -6 -6 -6 -6 -6 -6 -6 -6 -6 -6 -6 -6 -6 -6 -6 -6 -6 -6 -6 -6 -7 -7 -7 -7 -7 -7 -7 -7 -7 -7
-6 -6 -6 -6 -6 -6 -6 -7 -7 -7 -7 -7 -7 -7 -7 -7 -6 -6 -6 -6 -6 -6 -6 -6 -6 -6 -6 -7 -7 -7 -7 -7 -7 -7 -7 -7 -7 -7 -7 -7 -7 -7 -7
-6 -6 -6 -7 -7 -7 -7 -7 -7 -7 -7 -7 -7 -7 -7 -7 -7 -7 -7 -7 -7 -7 -7 -7 -7 -7 -7 -7 -7 -7 -7 -7 -7 -7 -7 -7 -7 -7 -7 -7 -7 -7 -7
-6 -6 -6 -7 -7 -7 -7 -7 -7 -7 -7 -7 -7 -7 -7 -7 -7 -7 -7 -7 -7 -7 -7 -7 -7 -7 -7 -7 -7 -7 -7 -7 -7 -7 -7 -7 -7 -7 -7 -7 -7 -7 -7
-6 -6 -7 -7 -7 -7 -7 -7 -7 -7 -7 -7 -7 -7 -7 -7 -7 -7 -7 -7 -7 -7 -7 -7 -7 -7 -7 -7 -7 -7 -7 -7 -7 -7 -7 -7 -7 -7 -7 -7 -7 -7 -7
-7 -7 -7 -7 -7 -7 -7 -7 -7 -7 -7 -7 -8 -8 -8 -7 -7 -8 -8 -8 -8 -8 -8 -8 -7 -7 -7 -7 -7 -7 -7 -7 -7 -7 -7 -7 -7 -7 -7 -7 -7 -7 -7
-7 -7 -7 -7 -7 -7 -7 -7 -8 -8 -8 -8 -8 -8 -8 -8 -8 -8 -8 -8 -8 -8 -8 -8 -7 -7 -7 -7 -7 -7 -7 -7 -7 -7 -7 -7 -7 -7 -7 -7 -7 -7 -7
Wind_Speed
4 4 3 3 3 3 3 3 3 2 2 2 3 3 3 3 3 3 4 4 5 4 4 4 4 4 4 4 4 4 4 4 6 5 3 3 4 3 4 4 4 4 4
4 3 3 3 3 3 3 3 3 3 2 3 3 3 3 3 3 4 4 5 5 5 5 5 5 4 5 5 4 5 4 5 6 6 4 3 4 4 4 4 4 4 4
4 3 3 3 3 3 3 3 3 3 3 3 2 2 3 3 3 4 4 5 5 5 5 5 5 5 5 5 5 5 4 4 4 5 5 4 3 3 4 4 4 4 4
4 3 3 3 3 4 3 3 3 3 3 3 3 3 3 3 3 3 4 4 4 4 5 5 5 5 5 5 5 5 4 4 4 5 4 4 3 3 3 3 3 3 3
3 3 3 3 3 3 3 3 3 3 2 3 2 2 2 3 3 3 3 4 4 4 4 4 4 4 5 5 4 4 4 4 4 5 5 4 4 3 3 3 4 4 4
3 3 3 3 3 3 3 3 3 2 2 2 2 2 3 2 3 3 3 4 4 4 4 4 3 4 4 5 6 5 4 5 5 5 5 5 6 5 4 3 3 3 4
3 3 2 3 3 4 3 3 2 2 2 2 2 2 3 3 3 3 3 3 4 4 4 3 3 3 4 4 4 4 4 5 7 7 7 7 6 5 4 5 4 5 5
3 3 3 3 3 3 3 3 2 2 2 2 2 2 3 3 3 3 3 3 3 3 3 4 4 4 4 4 4 4 4 5 6 6 6 6 6 5 5 5 5 5 5
3 3 3 3 3 3 3 3 2 2 2 2 2 2 2 3 3 2 3 2 2 3 3 3 3 4 3 3 4 4 4 4 4 5 6 5 6 6 5 3 3 3 4
3 3 3 3 4 3 3 3 2 2 2 2 2 2 2 3 3 2 3 2 3 3 3 3 3 4 4 4 4 4 4 4 4 4 4 4 4 4 4 5 4 4 4
3 3 3 3 3 3 3 2 2 2 2 2 2 2 2 3 2 2 2 2 2 3 2 2 3 3 4 5 4 4 4 4 4 4 4 4 3 3 3 3 4 4 5
3 2 2 3 2 2 2 1 1 1 1 1 1 2 2 2 2 2 3 3 3 3 3 3 3 4 5 5 4 3 3 4 3 3 3 3 3 3 3 3 4 4 5
2 2 2 2 2 1 1 1 1 0 1 1 1 2 2 2 2 3 3 3 3 3 2 3 3 4 4 4 3 3 3 2 2 3 3 3 3 3 3 3 3 3 4
2 2 2 1 1 1 1 1 1 1 1 1 2 2 2 2 2 2 2 2 3 2 2 2 3 3 3 3 2 2 2 2 2 3 2 3 2 2 3 3 3 2 3
2 1 1 1 1 1 1 1 2 2 2 2 2 2 3 3 3 4 3 2 2 2 2 2 2 2 2 2 2 2 1 1 2 2 2 2 2 2 2 2 2 3 3
1 1 1 1 1 1 1 2 2 2 4 3 3 3 3 4 5 5 4 3 2 1 1 1 2 2 2 2 2 2 2 2 2 2 2 2 2 2 2 2 2 2 3
1 1 1 1 1 1 1 2 2 3 3 3 3 4 4 4 4 4 3 2 1 0 1 1 2 2 2 2 2 2 2 2 2 2 2 2 2 2 2 2 2 2 3
1 1 1 1 1 1 1 1 1 2 2 2 3 4 4 4 4 4 3 1 0 0 1 1 2 2 2 2 2 2 2 2 2 2 2 2 2 2 2 3 3 3 3
1 1 1 1 1 1 1 1 1 1 2 2 2 3 4 4 3 4 3 1 1 1 2 2 2 2 2 1 2 2 2 2 2 2 2 2 2 2 2 3 3 3 3
1 1 0 0 0 0 0 0 1 1 1 2 2 2 3 2 2 2 2 2 1 1 2 2 2 2 2 2 2 2 2 2 2 2 2 2 2 2 2 3 3 3 3
1 1 1 0 0 0 0 1 1 1 1 1 2 3 3 2 2 2 2 2 2 2 2 2 2 2 2 2 2 2 2 2 2 2 2 2 2 2 2 2 3 3 3
1 1 0 0 0 1 1 1 1 1 1 1 2 2 3 2 1 2 2 2 2 2 2 2 2 2 2 2 2 2 2 2 2 2 2 2 2 2 2 3 3 3 2
1 1 0 1 0 1 1 1 0 1 1 1 2 2 2 2 2 2 2 2 2 2 2 2 2 2 2 2 3 2 2 3 3 3 3 3 3 3 2 3 3 3 3
1 1 1 1 0 1 1 1 1 1 1 1 1 2 2 2 2 2 2 2 2 2 2 2 2 3 3 3 3 3 3 4 4 3 4 3 3 3 3 3 3 3 3
1 1 1 1 1 1 1 1 1 1 1 1 1 2 2 2 2 2 2 2 2 2 3 3 3 3 4 4 4 4 5 5 5 3 3 3 3 3 3 3 2 2 2
0 1 1 1 1 1 1 1 1 1 1 1 2 2 2 2 2 2 2 2 2 3 3 3 3 4 4 4 5 5 5 5 4 4 3 3 2 2 2 2 2 2 2
Wind_Direction
311 313 310 310 302 288 280 278 280 282 292 288 284 274 270 267 259 251 251 251 249 250 249 247 250 249 242 240 235 235 239 246 253 261 262 273 282 281 292 289 279 277 270
309 310 305 307 302 289 283 280 277 278 282 280 278 273 271 271 268 258 255 253 252 253 254 250 248 245 242 243 238 236 238 246 250 258 265 269 277 281 287 288 294 288 277
307 306 305 307 303 291 286 283 274 271 274 276 274 274 273 273 271 267 261 258 254 254 255 252 247 242 241 239 236 236 237 241 248 251 259 267 274 275 285 288 291 292 290
300 300 302 305 302 293 288 281 276 271 269 275 280 280 276 275 270 270 266 261 257 253 253 252 250 245 243 240 237 235 235 237 244 247 248 256 264 270 268 279 291 294 299
292 297 305 309 305 297 290 284 277 273 271 271 272 278 278 270 271 271 266 263 258 255 253 254 255 257 257 248 242 238 235 238 241 248 247 257 261 256 262 279 281 298 302
294 302 314 316 310 302 295 288 277 276 276 271 264 270 276 278 289 285 283 265 259 260 260 264 262 253 254 248 247 250 247 245 245 248 249 247 254 263 274 262 270 285 292
302 306 312 310 308 303 299 289 277 279 288 275 269 273 275 277 292 284 290 275 261 264 262 264 268 264 263 250 242 242 249 257 256 253 256 252 257 259 264 259 258 272 283
299 302 309 309 304 301 296 286 285 284 284 284 273 275 280 280 292 288 288 275 269 273 273 270 270 270 265 249 244 243 248 255 258 255 256 262 262 260 255 259 268 283 289
293 299 304 303 298 295 292 288 287 282 282 283 272 269 273 279 287 285 274 271 270 277 282 278 272 273 271 254 253 251 256 266 267 262 264 269 275 270 262 252 257 264 280
295 299 299 297 290 286 286 288 284 277 269 277 280 274 274 279 291 289 276 264 267 275 276 275 274 277 278 266 257 258 262 269 268 267 266 260 260 258 252 252 247 246 269
299 300 299 294 289 285 284 283 280 281 283 276 279 284 284 288 293 292 286 273 270 271 269 274 278 279 278 275 271 269 268 270 265 263 265 265 260 257 261 268 264 252 255
299 295 295 297 300 297 292 294 291 282 278 293 296 302 302 304 315 310 307 299 292 271 268 271 276 279 282 280 277 274 283 281 263 259 264 270 266 268 275 282 282 280 272
289 285 287 297 309 312 308 308 307 300 300 309 308 306 309 313 312 314 308 304 297 286 279 284 292 297 296 288 277 275 274 272 267 264 265 275 278 277 279 282 289 291 292
273 282 286 300 325 335 322 317 322 326 313 308 308 307 311 306 307 312 305 297 293 289 286 285 288 294 296 303 300 282 275 276 274 273 282 288 284 275 270 271 277 289 295
261 269 291 309 316 322 323 323 321 318 315 308 300 298 301 299 311 317 307 301 298 292 293 280 282 286 290 293 298 288 282 278 276 278 284 289 293 290 283 281 277 284 282
245 266 292 308 319 320 330 342 354 329 336 334 325 316 306 308 311 309 304 303 317 313 284 272 278 283 287 292 295 306 306 294 288 289 282 280 282 282 285 287 283 277 280
235 255 271 285 308 323 334 341 345 352 359 359 346 334 328 328 328 323 323 321 327 24 264 281 286 286 293 297 298 302 302 301 296 282 280 277 274 270 271 275 274 274 280
237 235 249 262 292 307 318 328 331 334 342 349 351 349 349 352 359 1 2 3 351 350 317 306 303 302 298 298 303 309 307 301 289 281 279 276 272 272 271 269 265 267 278
233 225 244 272 285 294 310 329 336 328 332 337 342 350 359 2 15 20 18 19 11 350 340 330 321 313 304 300 303 301 297 295 294 292 285 279 273 271 274 277 275 274 277
233 240 273 247 250 281 313 335 335 333 336 337 343 349 347 351 3 5 7 5 358 342 337 331 327 323 319 308 297 294 298 297 296 291 290 288 282 272 271 275 273 270 273
222 205 203 219 234 279 289 284 292 304 320 329 334 341 349 343 344 348 346 345 338 331 326 323 322 323 323 319 308 299 295 293 293 293 291 291 290 283 276 272 271 271 275
208 212 210 212 234 265 286 285 277 286 306 318 331 337 347 353 349 344 339 334 333 329 321 317 317 320 316 312 302 292 287 286 286 284 284 289 289 284 279 277 279 282 280
188 190 203 219 228 255 289 290 287 293 309 322 331 335 336 343 340 336 334 334 337 336 328 319 316 318 317 312 302 290 282 282 282 278 276 275 275 272 270 272 274 277 279
183 195 200 212 232 248 268 277 282 300 310 311 317 324 325 329 333 335 333 331 331 328 324 318 313 313 314 312 304 296 288 287 287 272 265 267 271 271 270 270 272 270 272
195 203 212 222 234 248 266 276 281 290 306 311 316 317 316 321 326 329 331 332 333 332 329 323 315 312 310 308 305 302 301 296 287 278 263 256 264 269 271 274 276 280 280
235 241 241 244 251 262 265 266 271 285 292 302 306 306 311 314 316 320 325 326 327 327 324 322 320 316 314 310 306 306 307 304 293 281 271 260 262 268 279 278 287 286 285
Height
1476 1475 1474 1473 1473 1473 1473 1472 1472 1472 1471 1471 1471 1470 1470 1470 1470 1470 1470 1470 1470 1470 1470 1471 1471 1471 1472 1473 1473 1474 1475 1475 1475 1475 1475 1475 1475 1475 1475 1475 1474 1474 1473
1473 1472 1471 1470 1470 1470 1470 1469 1469 1469 1469 1468 1468 1467 1467 1467 1467 1467 1467 1467 1467 1467 1467 1467 1467 1468 1468 1469 1469 1470 1471 1471 1471 1471 1471 1471 1471 1471 1471 1471 1470 1469 1469
1469 1469 1468 1467 1467 1467 1466 1466 1466 1466 1466 1465 1465 1464 1464 1464 1464 1463 1463 1463 1463 1463 1464 1464 1464 1464 1464 1465 1465 1466 1467 1467 1467 1467 1466 1467 1467 1467 1467 1466 1466 1465 1465
1466 1465 1465 1464 1464 1464 1463 1463 1463 1463 1463 1462 1462 1461 1461 1461 1461 1460 1460 1460 1460 1460 1460 1460 1460 1460 1461 1461 1461 1462 1463 1463 1463 1463 1463 1462 1463 1463 1463 1462 1462 1461 1461
1463 1463 1462 1461 1461 1461 1460 1460 1460 1459 1459 1459 1459 1458 1458 1458 1458 1457 1457 1457 1456 1457 1457 1457 1457 1457 1457 1458 1458 1458 1459 1459 1459 1459 1459 1459 1459 1459 1459 1458 1458 1457 1456
1461 1460 1459 1458 1458 1458 1457 1457 1456 1456 1456 1456 1456 1455 1455 1455 1455 1454 1454 1454 1454 1453 1453 1453 1453 1454 1454 1454 1454 1455 1455 1456 1456 1456 1455 1455 1455 1455 1455 1455 1454 1453 1452
1458 1457 1457 1456 1455 1455 1454 1454 1454 1453 1453 1453 1453 1452 1452 1452 1452 1452 1451 1451 1451 1451 1451 1451 1450 1450 1450 1450 1451 1451 1451 1452 1452 1452 1451 1451 1451 1451 1451 1451 1451 1450 1449
1456 1455 1454 1454 1453 1453 1452 1452 1451 1451 1451 1450 1450 1450 1450 1450 1449 1449 1449 1448 1448 1448 1448 1448 1448 1447 1447 1447 1447 1447 1447 1448 1447 1447 1447 1447 1448 1448 1448 1448 1447 1446 1446
1453 1453 1452 1451 1451 1450 1449 1449 1449 1448 1448 1448 1448 1448 1447 1447 1447 1447 1447 1446 1446 1446 1446 1445 1445 1445 1445 1444 1444 1444 1444 1444 1444 1444 1444 1443 1443 1444 1444 1443 1443 1443 1441
1451 1450 1449 1449 1448 1448 1447 1446 1446 1446 1446 1446 1446 1446 1445 1445 1445 1445 1445 1444 1444 1444 1444 1443 1443 1442 1442 1442 1441 1441 1440 1440 1441 1440 1440 1440 1440 1440 1440 1440 1439 1439 1438
1448 1447 1447 1446 1446 1445 1445 1444 1444 1444 1444 1444 1444 1443 1443 1443 1443 1442 1442 1442 1442 1442 1441 1441 1440 1440 1440 1439 1439 1438 1438 1438 1437 1437 1437 1436 1436 1436 1436 1436 1436 1436 1435
1446 1445 1444 1444 1444 1443 1443 1442 1442 1442 1442 1442 1442 1441 1441 1441 1441 1440 1440 1440 1440 1440 1439 1439 1438 1438 1437 1437 1436 1436 1436 1435 1435 1434 1434 1433 1433 1433 1433 1433 1432 1432 1432
1443 1443 1442 1442 1442 1441 1441 1440 1440 1440 1440 1440 1440 1439 1439 1439 1439 1439 1438 1438 1438 1437 1437 1436 1436 1435 1435 1434 1433 1433 1433 1432 1432 1431 1431 1431 1430 1430 1430 1429 1429 1428 1428
1441 1441 1440 1440 1439 1439 1439 1439 1438 1438 1438 1438 1438 1438 1438 1437 1437 1437 1436 1436 1435 1435 1434 1434 1433 1433 1432 1431 1431 1430 1430 1430 1429 1429 1428 1428 1428 1427 1427 1426 1426 1425 1424
1439 1439 1438 1438 1438 1437 1437 1437 1437 1437 1437 1437 1436 1436 1436 1436 1435 1435 1434 1434 1433 1433 1432 1432 1431 1430 1430 1429 1428 1428 1427 1427 1426 1426 1426 1425 1425 1424 1424 1424 1423 1422 1422
1438 1437 1437 1437 1436 1436 1436 1436 1436 1436 1435 1435 1435 1435 1434 1434 1434 1433 1433 1432 1432 1432 1431 1430 1429 1428 1428 1427 1426 1425 1425 1425 1424 1424 1424 1423 1422 1422 1421 1421 1421 1420 1419
1436 1436 1436 1436 1435 1435 1435 1434 1434 1434 1434 1434 1433 1433 1433 1432 1432 1432 1431 1431 1430 1430 1429 1428 1427 1427 1426 1425 1424 1424 1423 1423 1422 1422 1421 1421 1420 1419 1419 1418 1418 1418 1417
1435 1435 1435 1435 1434 1434 1434 1434 1433 1433 1433 1432 1432 1432 1431 1431 1430 1430 1430 1429 1429 1428 1427 1427 1426 1425 1424 1424 1423 1423 1422 1421 1421 1420 1420 1419 1418 1417 1417 1416 1416 1415 1415
1434 1434 1434 1434 1434 1434 1434 1433 1433 1433 1432 1432 1431 1431 1430 1430 1429 1429 1428 1428 1427 1427 1426 1425 1425 1424 1423 1423 1422 1421 1421 1420 1419 1419 1418 1417 1416 1415 1415 1414 1414 1413 1413
1434 1434 1434 1433 1433 1433 1433 1433 1433 1432 1432 1431 1430 1430 1429 1428 1428 1427 1427 1427 1426 1426 1425 1424 1424 1423 1422 1421 1421 1420 1419 1418 1418 1417 1416 1415 1414 1414 1413 1412 1412 1411 1410
1433 1433 1433 1433 1433 1432 1432 1432 1432 1432 1431 1431 1430 1429 1429 1428 1427 1426 1426 1425 1425 1424 1424 1423 1422 1422 1421 1420 1419 1419 1418 1417 1416 1415 1414 1413 1413 1412 1411 1411 1410 1409 1408
1432 1432 1432 1432 1432 1432 1432 1431 1431 1431 1430 1430 1429 1428 1428 1427 1426 1426 1425 1424 1424 1423 1422 1422 1421 1420 1420 1419 1418 1418 1417 1416 1415 1414 1413 1412 1411 1410 1410 1409 1408 1408 1407
1431 1431 1431 1431 1431 1431 1431 1430 1430 1430 1429 1429 1428 1427 1427 1426 1425 1425 1424 1423 1423 1422 1421 1420 1420 1419 1418 1418 1417 1416 1415 1414 1414 1413 1412 1411 1410 1409 1408 1407 1407 1406 1406
1430 1430 1430 1430 1430 1430 1429 1429 1429 1428 1428 1427 1427 1426 1426 1425 1425 1424 1423 1422 1422 1421 1420 1419 1419 1418 1417 1416 1415 1415 1414 1413 1412 1411 1410 1409 1408 1408 1407 1406 1406 1405 1404
1429 1429 1429 1429 1429 1428 1428 1428 1427 1427 1427 1426 1426 1425 1425 1424 1423 1423 1422 1421 1421 1420 1419 1418 1417 1417 1416 1415 1414 1413 1413 1412 1411 1410 1409 1408 1407 1407 1406 1405 1404 1404 1403
1428 1428 1428 1427 1427 1427 1427 1426 1426 1426 1425 1425 1424 1424 1423 1423 1422 1421 1421 1420 1419 1419 1418 1417 1416 1416 1415 1414 1413 1413 1412 1411 1410 1409 1408 1407 1406 1406 1405 1404 1403 1403 1402